| time (UTC) | temp F | wind direction | speed MPH | gust MPH | rain 1hr in | rain 24hr in | rain mn in | humidity % | barometer mb |
| 20260906143905 | 76 | 47 | 8.0 | 9.0 | 0.00 | 0.00 | 0.00 | 88 | 1017.0 |
| 20260906143400 | 76 | 26 | 7.0 | 9.0 | 0.00 | 0.00 | 0.00 | 88 | 1017.1 |
| 20260906142856 | 77 | 39 | 7.0 | 7.0 | 0.00 | 0.00 | 0.00 | 88 | 1017.0 |
| 20260906142355 | 76 | 66 | 5.0 | 9.0 | 0.00 | 0.00 | 0.00 | 89 | 1017.1 |
| 20260906141850 | 76 | 64 | 2.0 | 11.0 | 0.00 | 0.00 | 0.00 | 90 | 1017.0 |
| 20260906141344 | 76 | 41 | 8.0 | 10.0 | 0.00 | 0.00 | 0.00 | 88 | 1017.1 |
| 20260906140844 | 76 | 68 | 3.0 | 8.0 | 0.00 | 0.00 | 0.00 | 89 | 1017.0 |
| 20260906140339 | 75 | 27 | 3.0 | 7.0 | 0.00 | 0.00 | 0.00 | 90 | 1016.9 |
| 20260906135836 | 75 | 15 | 6.0 | 10.0 | 0.00 | 0.00 | 0.00 | 90 | 1016.9 |
| 20260906135332 | 75 | 27 | 4.0 | 9.0 | 0.00 | 0.00 | 0.00 | 90 | 1017.1 |
| 20260906134827 | 76 | 69 | 3.0 | 6.0 | 0.00 | 0.00 | 0.00 | 90 | 1016.9 |
| 20260906134322 | 76 | 95 | 3.0 | 6.0 | 0.00 | 0.00 | 0.00 | 90 | 1016.9 |
| 20260906133817 | 75 | 32 | 6.0 | 6.0 | 0.00 | 0.00 | 0.00 | 91 | 1017.1 |
| 20260906133313 | 75 | 25 | 6.0 | 9.0 | 0.00 | 0.00 | 0.00 | 91 | 1016.9 |
| 20260906132808 | 75 | 30 | 4.0 | 6.0 | 0.00 | 0.00 | 0.00 | 91 | 1017.0 |
| 20260906132306 | 75 | 17 | 3.0 | 7.0 | 0.00 | 0.00 | 0.00 | 91 | 1016.9 |
| 20260906131758 | 74 | 55 | 5.0 | 7.0 | 0.00 | 0.00 | 0.00 | 92 | 1016.9 |
| 20260906131254 | 74 | 51 | 7.0 | 9.0 | 0.00 | 0.00 | 0.00 | 92 | 1017.2 |
| 20260906130749 | 74 | 31 | 5.0 | 7.0 | 0.00 | 0.00 | 0.00 | 92 | 1017.1 |
| 20260906130244 | 74 | 30 | 5.0 | 7.0 | 0.00 | 0.00 | 0.00 | 92 | 1017.0 |
| 20260906125742 | 74 | 27 | 2.0 | 6.0 | 0.00 | 0.00 | 0.00 | 92 | 1016.9 |
| 20260906125241 | 74 | 50 | 4.0 | 6.0 | 0.00 | 0.00 | 0.00 | 93 | 1017.1 |
| 20260906124735 | 73 | 61 | 5.0 | 5.0 | 0.00 | 0.00 | 0.00 | 93 | 1017.0 |
| 20260906124232 | 73 | 47 | 2.0 | 10.0 | 0.00 | 0.00 | 0.00 | 93 | 1016.9 |
| 20260906123730 | 73 | 50 | 5.0 | 8.0 | 0.00 | 0.00 | 0.00 | 93 | 1016.9 |
| 20260906123225 | 73 | 47 | 8.0 | 8.0 | 0.00 | 0.00 | 0.00 | 94 | 1016.8 |
| 20260906122725 | 73 | 19 | 3.0 | 8.0 | 0.00 | 0.00 | 0.00 | 94 | 1016.7 |
| 20260906122220 | 73 | 36 | 7.0 | 10.0 | 0.00 | 0.00 | 0.00 | 94 | 1016.6 |
| 20260906121717 | 73 | 29 | 5.0 | 8.0 | 0.00 | 0.00 | 0.00 | 94 | 1016.7 |
| 20260906121213 | 73 | 29 | 6.0 | 11.0 | 0.00 | 0.00 | 0.00 | 94 | 1016.5 |
| 20260906120708 | 73 | 38 | 5.0 | 7.0 | 0.00 | 0.00 | 0.00 | 94 | 1016.4 |
| 20260906120205 | 73 | 61 | 4.0 | 5.0 | 0.00 | 0.00 | 0.00 | 94 | 1016.4 |
| 20260906115700 | 73 | 45 | 6.0 | 6.0 | 0.00 | 0.00 | 0.00 | 94 | 1016.2 |
| 20260906115155 | 73 | 71 | 4.0 | 5.0 | 0.00 | 0.00 | 0.00 | 94 | 1016.2 |
| 20260906114654 | 73 | 84 | 1.0 | 4.0 | 0.00 | 0.00 | 0.00 | 94 | 1016.2 |
| 20260906114150 | 73 | 55 | 5.0 | 7.0 | 0.00 | 0.00 | 0.00 | 94 | 1016.1 |
| 20260906113649 | 73 | 42 | 6.0 | 7.0 | 0.00 | 0.00 | 0.00 | 94 | 1016.1 |
| 20260906113144 | 73 | 55 | 3.0 | 6.0 | 0.00 | 0.00 | 0.00 | 94 | 1016.1 |
| 20260906112643 | 73 | 52 | 3.0 | 4.0 | 0.00 | 0.00 | 0.00 | 94 | 1015.9 |
| 20260906112140 | 73 | 46 | 4.0 | 7.0 | 0.00 | 0.00 | 0.00 | 94 | 1015.9 |
| 20260906111639 | 74 | 45 | 4.0 | 6.0 | 0.00 | 0.00 | 0.00 | 94 | 1016.3 |
| 20260906111134 | 74 | 42 | 6.0 | 7.0 | 0.00 | 0.00 | 0.00 | 94 | 1015.9 |
| 20260906110629 | 74 | 43 | 3.0 | 6.0 | 0.00 | 0.00 | 0.00 | 94 | 1015.8 |
| 20260906110124 | 74 | 51 | 6.0 | 7.0 | 0.00 | 0.00 | 0.00 | 94 | 1015.9 |
| 20260906105618 | 74 | 53 | 4.0 | 5.0 | 0.00 | 0.00 | 0.00 | 94 | 1015.9 |
| 20260906105114 | 74 | 46 | 5.0 | 5.0 | 0.00 | 0.00 | 0.00 | 94 | 1015.9 |
| 20260906104614 | 74 | 41 | 3.0 | 6.0 | 0.00 | 0.00 | 0.00 | 94 | 1015.6 |
| 20260906104108 | 74 | 47 | 3.0 | 4.0 | 0.00 | 0.00 | 0.00 | 94 | 1015.6 |
| 20260906103606 | 75 | 67 | 3.0 | 6.0 | 0.00 | 0.00 | 0.00 | 94 | 1015.7 |
| 20260906103102 | 75 | 49 | 3.0 | 6.0 | 0.00 | 0.00 | 0.00 | 94 | 1015.6 |
| 20260906102601 | 75 | 72 | 2.0 | 5.0 | 0.00 | 0.00 | 0.00 | 94 | 1015.5 |
| 20260906102057 | 75 | 57 | 3.0 | 4.0 | 0.00 | 0.00 | 0.00 | 94 | 1015.5 |
| 20260906101557 | 75 | 50 | 4.0 | 5.0 | 0.00 | 0.00 | 0.00 | 94 | 1015.5 |
| 20260906101051 | 75 | 59 | 0.0 | 4.0 | 0.00 | 0.00 | 0.00 | 93 | 1015.5 |
| 20260906100547 | 75 | 40 | 3.0 | 4.0 | 0.00 | 0.00 | 0.00 | 93 | 1015.6 |
| 20260906100048 | 76 | 55 | 4.0 | 7.0 | 0.00 | 0.00 | 0.00 | 93 | 1015.4 |
| 20260906095547 | 76 | 64 | 2.0 | 5.0 | 0.00 | 0.00 | 0.00 | 94 | 1015.4 |
| 20260906095043 | 76 | 59 | 3.0 | 4.0 | 0.00 | 0.00 | 0.00 | 93 | 1015.2 |
| 20260906094542 | 76 | 53 | 4.0 | 4.0 | 0.00 | 0.00 | 0.00 | 93 | 1015.2 |
| 20260906094038 | 76 | 43 | 4.0 | 7.0 | 0.00 | 0.00 | 0.00 | 93 | 1015.3 |
| 20260906093533 | 77 | 50 | 3.0 | 6.0 | 0.00 | 0.00 | 0.00 | 92 | 1015.2 |
| 20260906093028 | 77 | 39 | 4.0 | 7.0 | 0.00 | 0.00 | 0.00 | 92 | 1015.3 |
| 20260906092523 | 77 | 10 | 2.0 | 5.0 | 0.00 | 0.00 | 0.00 | 92 | 1015.1 |
| 20260906092018 | 77 | 54 | 3.0 | 5.0 | 0.00 | 0.00 | 0.00 | 92 | 1015.3 |
| 20260906091514 | 77 | 48 | 3.0 | 6.0 | 0.00 | 0.00 | 0.00 | 92 | 1015.3 |
| 20260906091010 | 77 | 63 | 5.0 | 11.0 | 0.00 | 0.00 | 0.00 | 91 | 1015.1 |
| 20260906090505 | 77 | 11 | 5.0 | 9.0 | 0.00 | 0.00 | 0.00 | 92 | 1015.1 |
| 20260906090005 | 77 | 75 | 3.0 | 6.0 | 0.00 | 0.00 | 0.00 | 91 | 1015.1 |
| 20260906085504 | 78 | 45 | 5.0 | 5.0 | 0.00 | 0.00 | 0.00 | 91 | 1015.0 |
| 20260906085003 | 78 | 106 | 2.0 | 8.0 | 0.00 | 0.00 | 0.00 | 91 | 1015.2 |
| 20260906084458 | 78 | 63 | 6.0 | 9.0 | 0.00 | 0.00 | 0.00 | 91 | 1015.1 |
| 20260906083957 | 78 | 62 | 4.0 | 5.0 | 0.00 | 0.00 | 0.00 | 91 | 1014.9 |
| 20260906083453 | 78 | 74 | 3.0 | 5.0 | 0.00 | 0.00 | 0.00 | 91 | 1015.1 |
| 20260906082952 | 78 | 50 | 4.0 | 5.0 | 0.00 | 0.00 | 0.00 | 91 | 1014.8 |
| 20260906082448 | 79 | 77 | 2.0 | 6.0 | 0.00 | 0.00 | 0.00 | 91 | 1014.8 |
| 20260906081943 | 79 | 83 | 2.0 | 5.0 | 0.00 | 0.00 | 0.00 | 91 | 1014.8 |
| 20260906081444 | 79 | 57 | 6.0 | 7.0 | 0.00 | 0.00 | 0.00 | 91 | 1014.7 |
| 20260906080940 | 79 | 65 | 6.0 | 7.0 | 0.00 | 0.00 | 0.00 | 91 | 1014.6 |
| 20260906080436 | 79 | 58 | 4.0 | 5.0 | 0.00 | 0.00 | 0.00 | 91 | 1014.7 |
| 20260906075931 | 80 | 99 | 1.0 | 4.0 | 0.00 | 0.00 | 0.00 | 91 | 1014.6 |
| 20260906075426 | 80 | 60 | 5.0 | 9.0 | 0.00 | 0.00 | 0.00 | 90 | 1014.6 |
| 20260906074921 | 80 | 70 | 2.0 | 5.0 | 0.00 | 0.00 | 0.00 | 90 | 1014.9 |
| 20260906074421 | 80 | 72 | 3.0 | 6.0 | 0.00 | 0.00 | 0.00 | 90 | 1014.8 |
| 20260906073920 | 80 | 52 | 7.0 | 7.0 | 0.00 | 0.00 | 0.00 | 90 | 1014.9 |
| 20260906073415 | 81 | 65 | 3.0 | 6.0 | 0.00 | 0.00 | 0.00 | 89 | 1014.8 |
| 20260906072911 | 81 | 96 | 2.0 | 7.0 | 0.00 | 0.00 | 0.00 | 89 | 1014.8 |
| 20260906072406 | 81 | 87 | 2.0 | 7.0 | 0.00 | 0.00 | 0.00 | 88 | 1014.7 |
| 20260906071902 | 81 | 61 | 6.0 | 9.0 | 0.00 | 0.00 | 0.00 | 89 | 1014.8 |
| 20260906071357 | 81 | 91 | 2.0 | 4.0 | 0.00 | 0.00 | 0.00 | 89 | 1014.8 |
| 20260906070853 | 81 | 58 | 4.0 | 4.0 | 0.00 | 0.00 | 0.00 | 89 | 1014.8 |
| 20260906070349 | 81 | 67 | 3.0 | 5.0 | 0.00 | 0.00 | 0.00 | 88 | 1014.9 |
| 20260906065844 | 82 | 89 | 2.0 | 4.0 | 0.00 | 0.00 | 0.00 | 88 | 1014.7 |
| 20260906065338 | 82 | 107 | 2.0 | 3.0 | 0.00 | 0.00 | 0.00 | 87 | 1014.8 |
| 20260906064834 | 82 | 67 | 3.0 | 5.0 | 0.00 | 0.00 | 0.00 | 87 | 1014.6 |
| 20260906064331 | 82 | 60 | 1.0 | 3.0 | 0.00 | 0.00 | 0.00 | 87 | 1014.6 |
| 20260906063830 | 82 | 86 | 1.0 | 4.0 | 0.00 | 0.00 | 0.00 | 87 | 1014.8 |
| 20260906063326 | 82 | 74 | 3.0 | 5.0 | 0.00 | 0.00 | 0.00 | 86 | 1014.8 |
| 20260906062821 | 83 | 82 | 2.0 | 2.0 | 0.00 | 0.00 | 0.00 | 86 | 1014.8 |
| 20260906062320 | 83 | 71 | 2.0 | 2.0 | 0.00 | 0.00 | 0.00 | 85 | 1014.7 |
| 20260906061816 | 83 | 102 | 2.0 | 3.0 | 0.00 | 0.00 | 0.00 | 85 | 1014.7 |
| 20260906061312 | 83 | 72 | 3.0 | 5.0 | 0.00 | 0.00 | 0.00 | 85 | 1014.8 |
| 20260906060807 | 83 | 78 | 3.0 | 4.0 | 0.00 | 0.00 | 0.00 | 84 | 1014.9 |
| 20260906060305 | 83 | 100 | 2.0 | 3.0 | 0.00 | 0.00 | 0.00 | 84 | 1014.9 |
| 20260906055800 | 83 | 99 | 3.0 | 4.0 | 0.00 | 0.00 | 0.00 | 84 | 1014.7 |
| 20260906055255 | 83 | 69 | 1.0 | 3.0 | 0.00 | 0.00 | 0.00 | 84 | 1014.7 |
| 20260906054750 | 84 | 100 | 2.0 | 3.0 | 0.00 | 0.00 | 0.00 | 83 | 1014.9 |
| 20260906054246 | 84 | 91 | 1.0 | 5.0 | 0.00 | 0.00 | 0.00 | 83 | 1014.7 |
| 20260906053742 | 84 | 59 | 2.0 | 3.0 | 0.00 | 0.00 | 0.00 | 83 | 1014.7 |
| 20260906053238 | 84 | 70 | 3.0 | 3.0 | 0.00 | 0.00 | 0.00 | 83 | 1014.6 |
| 20260906052732 | 84 | 62 | 2.0 | 2.0 | 0.00 | 0.00 | 0.00 | 82 | 1014.7 |
| 20260906052229 | 84 | 83 | 2.0 | 3.0 | 0.00 | 0.00 | 0.00 | 82 | 1014.9 |
| 20260906051726 | 84 | 81 | 2.0 | 4.0 | 0.00 | 0.00 | 0.00 | 81 | 1014.9 |
| 20260906051225 | 84 | 75 | 3.0 | 4.0 | 0.00 | 0.00 | 0.00 | 81 | 1014.7 |
| 20260906050720 | 85 | 68 | 3.0 | 4.0 | 0.00 | 0.00 | 0.00 | 80 | 1014.8 |
| 20260906050216 | 85 | 61 | 3.0 | 4.0 | 0.00 | 0.00 | 0.00 | 80 | 1014.8 |
| 20260906045714 | 85 | 51 | 3.0 | 5.0 | 0.00 | 0.00 | 0.00 | 80 | 1014.8 |
| 20260906045209 | 85 | 79 | 2.0 | 4.0 | 0.00 | 0.00 | 0.00 | 80 | 1014.6 |
| 20260906044705 | 85 | 96 | 2.0 | 4.0 | 0.00 | 0.00 | 0.00 | 79 | 1014.6 |
| 20260906044200 | 85 | 88 | 2.0 | 3.0 | 0.00 | 0.00 | 0.00 | 79 | 1014.4 |
| 20260906043656 | 85 | 62 | 2.0 | 3.0 | 0.00 | 0.00 | 0.00 | 79 | 1014.5 |
| 20260906043151 | 85 | 59 | 2.0 | 3.0 | 0.00 | 0.00 | 0.00 | 79 | 1014.5 |
| 20260906042651 | 85 | 65 | 2.0 | 3.0 | 0.00 | 0.00 | 0.00 | 79 | 1014.5 |
| 20260906042145 | 85 | 108 | 0.0 | 2.0 | 0.00 | 0.00 | 0.00 | 78 | 1014.5 |
| 20260906041641 | 85 | 70 | 2.0 | 3.0 | 0.00 | 0.00 | 0.00 | 78 | 1014.5 |
| 20260906041136 | 86 | 82 | 2.0 | 3.0 | 0.00 | 0.00 | 0.00 | 78 | 1014.3 |
| 20260906040631 | 86 | 53 | 3.0 | 3.0 | 0.00 | 0.00 | 0.00 | 77 | 1014.3 |
| 20260906040127 | 86 | 65 | 2.0 | 2.0 | 0.00 | 0.00 | 0.00 | 77 | 1014.0 |
| 20260906035622 | 86 | 64 | 2.0 | 3.0 | 0.00 | 0.00 | 0.00 | 77 | 1014.2 |
| 20260906035118 | 86 | 68 | 0.0 | 3.0 | 0.00 | 0.00 | 0.00 | 77 | 1014.2 |
| 20260906034617 | 86 | 69 | 2.0 | 4.0 | 0.00 | 0.00 | 0.00 | 76 | 1014.2 |
| 20260906034112 | 86 | 41 | 3.0 | 3.0 | 0.00 | 0.00 | 0.00 | 76 | 1014.4 |
| 20260906033608 | 86 | 36 | 4.0 | 5.0 | 0.00 | 0.00 | 0.00 | 76 | 1014.2 |
| 20260906033103 | 86 | 101 | 1.0 | 2.0 | 0.00 | 0.00 | 0.00 | 76 | 1014.1 |
| 20260906032600 | 86 | 81 | 1.0 | 3.0 | 0.00 | 0.00 | 0.00 | 76 | 1014.1 |
| 20260906032059 | 86 | 49 | 3.0 | 4.0 | 0.00 | 0.00 | 0.00 | 76 | 1014.2 |
| 20260906031555 | 86 | 63 | 2.0 | 2.0 | 0.00 | 0.00 | 0.00 | 76 | 1014.1 |
| 20260906031050 | 86 | 111 | 1.0 | 3.0 | 0.00 | 0.00 | 0.00 | 76 | 1013.9 |
| 20260906030549 | 86 | 56 | 2.0 | 3.0 | 0.00 | 0.00 | 0.00 | 76 | 1013.8 |
| 20260906030044 | 86 | 117 | 0.0 | 1.0 | 0.00 | 0.00 | 0.00 | 75 | 1013.9 |
| 20260906025544 | 87 | 84 | 0.0 | 3.0 | 0.00 | 0.00 | 0.00 | 74 | 1014.0 |
| 20260906025042 | 87 | 81 | 1.0 | 2.0 | 0.00 | 0.00 | 0.00 | 74 | 1013.8 |
| 20260906024538 | 87 | 68 | 1.0 | 2.0 | 0.00 | 0.00 | 0.00 | 74 | 1013.8 |
| 20260906024037 | 87 | 98 | 0.0 | 5.0 | 0.00 | 0.00 | 0.00 | 73 | 1013.5 |
| 20260906023534 | 87 | 63 | 2.0 | 2.0 | 0.00 | 0.00 | 0.00 | 73 | 1013.6 |
| 20260906023028 | 87 | 87 | 2.0 | 3.0 | 0.00 | 0.00 | 0.00 | 73 | 1013.5 |
| 20260906022523 | 87 | 58 | 1.0 | 2.0 | 0.00 | 0.00 | 0.00 | 72 | 1013.4 |
| 20260906022019 | 87 | 57 | 0.0 | 1.0 | 0.00 | 0.00 | 0.00 | 71 | 1013.3 |
| 20260906021514 | 87 | 75 | 2.0 | 2.0 | 0.00 | 0.00 | 0.00 | 71 | 1013.3 |
| 20260906021008 | 87 | 44 | 0.0 | 2.0 | 0.00 | 0.00 | 0.00 | 71 | 1013.3 |
| 20260906020508 | 87 | 37 | 0.0 | 1.0 | 0.00 | 0.00 | 0.00 | 71 | 1013.0 |
| 20260906020007 | 87 | 43 | 2.0 | 2.0 | 0.00 | 0.00 | 0.00 | 71 | 1013.1 |
| 20260906015506 | 88 | 76 | 0.0 | 4.0 | 0.00 | 0.00 | 0.00 | 70 | 1012.9 |
| 20260906015001 | 88 | 84 | 1.0 | 3.0 | 0.00 | 0.00 | 0.00 | 70 | 1012.9 |
| 20260906014455 | 88 | 62 | 2.0 | 3.0 | 0.00 | 0.00 | 0.00 | 70 | 1013.0 |
| 20260906013951 | 88 | 88 | 1.0 | 1.0 | 0.00 | 0.00 | 0.00 | 70 | 1012.7 |
| 20260906013447 | 88 | 70 | 2.0 | 3.0 | 0.00 | 0.00 | 0.00 | 69 | 1012.9 |
| 20260906012942 | 89 | 66 | 2.0 | 3.0 | 0.00 | 0.00 | 0.00 | 69 | 1012.6 |
| 20260906012437 | 88 | 89 | 0.0 | 2.0 | 0.00 | 0.00 | 0.00 | 69 | 1012.6 |
| 20260906011936 | 89 | 117 | 0.0 | 2.0 | 0.00 | 0.00 | 0.00 | 68 | 1012.6 |
| 20260906011432 | 89 | 89 | 0.0 | 2.0 | 0.00 | 0.00 | 0.00 | 68 | 1012.6 |
| 20260906010927 | 89 | 358 | 2.0 | 2.0 | 0.00 | 0.00 | 0.00 | 68 | 1012.4 |
| 20260906010422 | 89 | 78 | 1.0 | 2.0 | 0.00 | 0.00 | 0.00 | 67 | 1012.3 |
| 20260906005918 | 90 | 71 | 0.0 | 2.0 | 0.00 | 0.00 | 0.00 | 66 | 1012.4 |
| 20260906005418 | 90 | 35 | 2.0 | 2.0 | 0.00 | 0.00 | 0.00 | 65 | 1012.3 |
| 20260906004916 | 90 | 34 | 2.0 | 3.0 | 0.00 | 0.00 | 0.00 | 65 | 1012.4 |
| 20260906004411 | 90 | 54 | 2.0 | 3.0 | 0.00 | 0.00 | 0.00 | 64 | 1012.4 |
| 20260906003906 | 91 | 57 | 2.0 | 4.0 | 0.00 | 0.00 | 0.00 | 64 | 1012.3 |
| 20260906003402 | 91 | 69 | 1.0 | 4.0 | 0.00 | 0.00 | 0.00 | 63 | 1012.4 |
| 20260906002857 | 91 | 72 | 3.0 | 4.0 | 0.00 | 0.00 | 0.00 | 62 | 1012.3 |
| 20260906002356 | 91 | 72 | 3.0 | 3.0 | 0.00 | 0.00 | 0.00 | 61 | 1012.3 |
| 20260906001852 | 92 | 35 | 4.0 | 5.0 | 0.00 | 0.00 | 0.00 | 60 | 1012.4 |
| 20260906001348 | 92 | 6 | 5.0 | 5.0 | 0.00 | 0.00 | 0.00 | 59 | 1012.6 |
| 20260906000842 | 93 | 36 | 2.0 | 4.0 | 0.00 | 0.00 | 0.00 | 59 | 1012.5 |
| 20260906000343 | 93 | 54 | 3.0 | 6.0 | 0.00 | 0.00 | 0.00 | 58 | 1012.6 |
| 20260905235843 | 93 | 40 | 4.0 | 5.0 | 0.00 | 0.00 | 0.00 | 57 | 1012.5 |
| 20260905235337 | 94 | 29 | 2.0 | 4.0 | 0.00 | 0.00 | 0.00 | 57 | 1012.4 |
| 20260905234832 | 94 | 56 | 3.0 | 3.0 | 0.00 | 0.00 | 0.00 | 57 | 1012.5 |
| 20260905234327 | 94 | 22 | 2.0 | 3.0 | 0.00 | 0.00 | 0.00 | 56 | 1012.3 |
| 20260905233822 | 94 | 60 | 1.0 | 5.0 | 0.00 | 0.00 | 0.00 | 55 | 1012.4 |
| 20260905233317 | 95 | 51 | 5.0 | 6.0 | 0.00 | 0.00 | 0.00 | 55 | 1012.4 |
| 20260905232817 | 95 | 29 | 1.0 | 4.0 | 0.00 | 0.00 | 0.00 | 54 | 1012.7 |
| 20260905232313 | 95 | 21 | 4.0 | 5.0 | 0.00 | 0.00 | 0.00 | 54 | 1012.4 |
| 20260905231809 | 95 | 8 | 2.0 | 4.0 | 0.00 | 0.00 | 0.00 | 53 | 1012.5 |
| 20260905231303 | 95 | 42 | 2.0 | 3.0 | 0.00 | 0.00 | 0.00 | 53 | 1012.5 |
| 20260905230800 | 96 | 40 | 0.0 | 3.0 | 0.00 | 0.00 | 0.00 | 53 | 1012.5 |
| 20260905230257 | 96 | 48 | 2.0 | 3.0 | 0.00 | 0.00 | 0.00 | 52 | 1012.5 |
| 20260905225757 | 96 | 35 | 3.0 | 4.0 | 0.00 | 0.00 | 0.00 | 52 | 1012.6 |
| 20260905225252 | 96 | 45 | 3.0 | 3.0 | 0.00 | 0.00 | 0.00 | 52 | 1012.5 |
| 20260905224752 | 96 | 92 | 1.0 | 3.0 | 0.00 | 0.00 | 0.00 | 53 | 1012.6 |
| 20260905224248 | 96 | 61 | 2.0 | 4.0 | 0.00 | 0.00 | 0.00 | 52 | 1012.4 |
| 20260905223743 | 96 | 48 | 3.0 | 3.0 | 0.00 | 0.00 | 0.00 | 51 | 1012.2 |
| 20260905223240 | 96 | 66 | 5.0 | 5.0 | 0.00 | 0.00 | 0.00 | 51 | 1012.0 |
| 20260905222735 | 97 | 54 | 3.0 | 6.0 | 0.00 | 0.00 | 0.00 | 50 | 1012.1 |
| 20260905222234 | 97 | 37 | 4.0 | 6.0 | 0.00 | 0.00 | 0.00 | 49 | 1012.2 |
| 20260905221730 | 98 | 31 | 2.0 | 6.0 | 0.00 | 0.00 | 0.00 | 49 | 1012.4 |
| 20260905221227 | 98 | 22 | 5.0 | 10.0 | 0.00 | 0.00 | 0.00 | 49 | 1012.4 |
| 20260905220723 | 99 | 56 | 3.0 | 7.0 | 0.00 | 0.00 | 0.00 | 49 | 1012.3 |
| 20260905220219 | 99 | 341 | 3.0 | 6.0 | 0.00 | 0.00 | 0.00 | 48 | 1012.4 |
| 20260905215718 | 99 | 21 | 4.0 | 6.0 | 0.00 | 0.00 | 0.00 | 48 | 1012.5 |
| 20260905215214 | 100 | 62 | 6.0 | 7.0 | 0.00 | 0.00 | 0.00 | 48 | 1012.4 |
| 20260905214709 | 99 | 342 | 3.0 | 6.0 | 0.00 | 0.00 | 0.00 | 48 | 1012.3 |
| 20260905214205 | 100 | 26 | 1.0 | 5.0 | 0.00 | 0.00 | 0.00 | 45 | 1012.4 |
| 20260905213700 | 100 | 19 | 3.0 | 5.0 | 0.00 | 0.00 | 0.00 | 47 | 1012.3 |
| 20260905213156 | 100 | 41 | 3.0 | 5.0 | 0.00 | 0.00 | 0.00 | 46 | 1012.3 |
| 20260905212651 | 99 | 358 | 5.0 | 7.0 | 0.00 | 0.00 | 0.00 | 47 | 1012.5 |
| 20260905212150 | 99 | 356 | 3.0 | 5.0 | 0.00 | 0.00 | 0.00 | 48 | 1012.3 |
| 20260905211644 | 100 | 261 | 0.0 | 5.0 | 0.00 | 0.00 | 0.00 | 47 | 1012.3 |
| 20260905211140 | 100 | 98 | 1.0 | 4.0 | 0.00 | 0.00 | 0.00 | 47 | 1012.5 |
| 20260905210637 | 100 | 303 | 2.0 | 6.0 | 0.00 | 0.00 | 0.00 | 47 | 1012.5 |
| 20260905210131 | 99 | 53 | 1.0 | 5.0 | 0.00 | 0.00 | 0.00 | 48 | 1012.8 |
| 20260905205630 | 100 | 10 | 5.0 | 5.0 | 0.00 | 0.00 | 0.00 | 47 | 1012.8 |
| 20260905205124 | 99 | 343 | 4.0 | 5.0 | 0.00 | 0.00 | 0.00 | 48 | 1012.7 |
| 20260905204624 | 99 | 5 | 3.0 | 6.0 | 0.00 | 0.00 | 0.00 | 49 | 1012.8 |
| 20260905204119 | 98 | 44 | 3.0 | 7.0 | 0.00 | 0.00 | 0.00 | 51 | 1012.7 |
| 20260905203614 | 98 | 56 | 3.0 | 10.0 | 0.00 | 0.00 | 0.00 | 51 | 1012.7 |
| 20260905203109 | 97 | 51 | 5.0 | 7.0 | 0.00 | 0.00 | 0.00 | 51 | 1012.8 |
| 20260905202604 | 98 | 33 | 9.0 | 11.0 | 0.00 | 0.00 | 0.00 | 50 | 1012.8 |
| 20260905202059 | 99 | 61 | 4.0 | 7.0 | 0.00 | 0.00 | 0.00 | 50 | 1012.7 |
| 20260905201555 | 100 | 66 | 2.0 | 9.0 | 0.00 | 0.00 | 0.00 | 50 | 1012.7 |
| 20260905201054 | 100 | 349 | 4.0 | 7.0 | 0.00 | 0.00 | 0.00 | 51 | 1012.7 |
| 20260905200549 | 100 | 23 | 3.0 | 10.0 | 0.00 | 0.00 | 0.00 | 51 | 1012.9 |
| 20260905200044 | 100 | 13 | 4.0 | 8.0 | 0.00 | 0.00 | 0.00 | 49 | 1013.0 |
| 20260905195538 | 101 | 172 | 2.0 | 9.0 | 0.00 | 0.00 | 0.00 | 49 | 1013.0 |
| 20260905195034 | 99 | 263 | 3.0 | 4.0 | 0.00 | 0.00 | 0.00 | 46 | 1012.9 |
| 20260905194533 | 100 | 287 | 2.0 | 8.0 | 0.00 | 0.00 | 0.00 | 44 | 1013.0 |
| 20260905194033 | 101 | 299 | 1.0 | 6.0 | 0.00 | 0.00 | 0.00 | 44 | 1012.8 |
| 20260905193527 | 102 | 21 | 2.0 | 8.0 | 0.00 | 0.00 | 0.00 | 43 | 1013.0 |
| 20260905193023 | 103 | 255 | 0.0 | 2.0 | 0.00 | 0.00 | 0.00 | 43 | 1013.2 |
| 20260905192518 | 101 | 262 | 3.0 | 7.0 | 0.00 | 0.00 | 0.00 | 46 | 1013.3 |
| 20260905192015 | 101 | 33 | 2.0 | 5.0 | 0.00 | 0.00 | 0.00 | 44 | 1013.4 |
| 20260905191513 | 101 | 234 | 3.0 | 8.0 | 0.00 | 0.00 | 0.00 | 44 | 1013.4 |
| 20260905191012 | 99 | 303 | 0.0 | 4.0 | 0.00 | 0.00 | 0.00 | 46 | 1013.4 |
| 20260905190510 | 100 | 205 | 3.0 | 6.0 | 0.00 | 0.00 | 0.00 | 45 | 1013.4 |
| 20260905190010 | 100 | 279 | 2.0 | 6.0 | 0.00 | 0.00 | 0.00 | 44 | 1013.5 |
| 20260905185504 | 100 | 2 | 3.0 | 9.0 | 0.00 | 0.00 | 0.00 | 45 | 1013.5 |
| 20260905185003 | 101 | 34 | 1.0 | 6.0 | 0.00 | 0.00 | 0.00 | 47 | 1013.6 |
| 20260905184458 | 101 | 45 | 4.0 | 9.0 | 0.00 | 0.00 | 0.00 | 45 | 1013.7 |
| 20260905183957 | 100 | 28 | 3.0 | 3.0 | 0.00 | 0.00 | 0.00 | 45 | 1013.7 |
| 20260905183456 | 100 | 253 | 4.0 | 14.0 | 0.00 | 0.00 | 0.00 | 46 | 1013.8 |
| 20260905182951 | 100 | 33 | 3.0 | 3.0 | 0.00 | 0.00 | 0.00 | 48 | 1014.0 |
| 20260905182451 | 100 | 359 | 2.0 | 6.0 | 0.00 | 0.00 | 0.00 | 50 | 1013.9 |
| 20260905181946 | 100 | 266 | 0.0 | 3.0 | 0.00 | 0.00 | 0.00 | 49 | 1013.8 |
| 20260905181441 | 99 | 24 | 2.0 | 4.0 | 0.00 | 0.00 | 0.00 | 49 | 1013.8 |
| 20260905180940 | 98 | 77 | 2.0 | 7.0 | 0.00 | 0.00 | 0.00 | 51 | 1014.1 |
| 20260905180435 | 99 | 176 | 1.0 | 6.0 | 0.00 | 0.00 | 0.00 | 50 | 1014.1 |
| 20260905175930 | 98 | 143 | 1.0 | 5.0 | 0.00 | 0.00 | 0.00 | 52 | 1014.2 |
| 20260905175429 | 98 | 30 | 5.0 | 7.0 | 0.00 | 0.00 | 0.00 | 52 | 1014.3 |
| 20260905174925 | 98 | 44 | 3.0 | 6.0 | 0.00 | 0.00 | 0.00 | 53 | 1014.1 |
| 20260905174420 | 99 | 135 | 1.0 | 2.0 | 0.00 | 0.00 | 0.00 | 53 | 1014.2 |
| 20260905173916 | 98 | 297 | 2.0 | 5.0 | 0.00 | 0.00 | 0.00 | 51 | 1014.2 |
| 20260905173413 | 99 | 179 | 1.0 | 3.0 | 0.00 | 0.00 | 0.00 | 52 | 1014.3 |
| 20260905172912 | 98 | 32 | 1.0 | 5.0 | 0.00 | 0.00 | 0.00 | 53 | 1014.3 |
| 20260905172410 | 98 | 26 | 1.0 | 3.0 | 0.00 | 0.00 | 0.00 | 53 | 1014.3 |
| 20260905171907 | 96 | 40 | 6.0 | 7.0 | 0.00 | 0.00 | 0.00 | 54 | 1014.4 |
| 20260905171403 | 96 | 10 | 3.0 | 4.0 | 0.00 | 0.00 | 0.00 | 57 | 1014.5 |
| 20260905170859 | 97 | 39 | 3.0 | 5.0 | 0.00 | 0.00 | 0.00 | 53 | 1014.7 |
| 20260905170355 | 97 | 338 | 2.0 | 6.0 | 0.00 | 0.00 | 0.00 | 54 | 1014.8 |
| 20260905165854 | 96 | 339 | 1.0 | 6.0 | 0.00 | 0.00 | 0.00 | 55 | 1014.8 |
| 20260905165349 | 96 | 104 | 1.0 | 6.0 | 0.00 | 0.00 | 0.00 | 55 | 1014.9 |
| 20260905164844 | 96 | 19 | 3.0 | 5.0 | 0.00 | 0.00 | 0.00 | 55 | 1014.8 |
| 20260905164339 | 96 | 12 | 1.0 | 4.0 | 0.00 | 0.00 | 0.00 | 57 | 1014.9 |
| 20260905163835 | 97 | 3 | 3.0 | 5.0 | 0.00 | 0.00 | 0.00 | 53 | 1014.8 |
| 20260905163331 | 98 | 333 | 0.0 | 2.0 | 0.00 | 0.00 | 0.00 | 56 | 1015.0 |
| 20260905162827 | 96 | 252 | 2.0 | 3.0 | 0.00 | 0.00 | 0.00 | 55 | 1014.9 |
| 20260905162326 | 96 | 52 | 2.0 | 3.0 | 0.00 | 0.00 | 0.00 | 56 | 1015.0 |
| 20260905161827 | 96 | 27 | 3.0 | 3.0 | 0.00 | 0.00 | 0.00 | 57 | 1015.1 |
| 20260905161326 | 96 | 26 | 1.0 | 3.0 | 0.00 | 0.00 | 0.00 | 57 | 1015.0 |
| 20260905160825 | 95 | 277 | 1.0 | 3.0 | 0.00 | 0.00 | 0.00 | 57 | 1015.1 |
| 20260905160319 | 94 | 220 | 3.0 | 4.0 | 0.00 | 0.00 | 0.00 | 59 | 1015.1 |
| 20260905155814 | 95 | 202 | 3.0 | 3.0 | 0.00 | 0.00 | 0.00 | 58 | 1015.0 |
| 20260905155313 | 94 | 309 | 2.0 | 5.0 | 0.00 | 0.00 | 0.00 | 58 | 1015.0 |
| 20260905154807 | 94 | 274 | 2.0 | 5.0 | 0.00 | 0.00 | 0.00 | 60 | 1015.2 |
| 20260905154303 | 93 | 252 | 3.0 | 5.0 | 0.00 | 0.00 | 0.00 | 60 | 1014.9 |
| 20260905153758 | 94 | 186 | 0.0 | 2.0 | 0.00 | 0.00 | 0.00 | 60 | 1015.1 |
| 20260905153254 | 93 | 60 | 3.0 | 3.0 | 0.00 | 0.00 | 0.00 | 60 | 1015.1 |
| 20260905152748 | 92 | 245 | 1.0 | 3.0 | 0.00 | 0.00 | 0.00 | 61 | 1015.1 |
| 20260905152242 | 93 | 294 | 2.0 | 3.0 | 0.00 | 0.00 | 0.00 | 61 | 1015.1 |
| 20260905151742 | 92 | 285 | 0.0 | 3.0 | 0.00 | 0.00 | 0.00 | 62 | 1015.2 |
| 20260905151238 | 92 | 49 | 0.0 | 4.0 | 0.00 | 0.00 | 0.00 | 63 | 1015.4 |
| 20260905150738 | 91 | 285 | 3.0 | 3.0 | 0.00 | 0.00 | 0.00 | 62 | 1015.2 |
| 20260905150237 | 91 | 236 | 1.0 | 3.0 | 0.00 | 0.00 | 0.00 | 64 | 1015.2 |
| 20260905145735 | 90 | 287 | 2.0 | 4.0 | 0.00 | 0.00 | 0.00 | 64 | 1015.1 |
| 20260905145230 | 90 | 318 | 0.0 | 4.0 | 0.00 | 0.00 | 0.00 | 64 | 1014.9 |
| 20260905144729 | 89 | 236 | 3.0 | 5.0 | 0.00 | 0.00 | 0.00 | 66 | 1015.0 |
| 20260905144224 | 89 | 287 | 1.0 | 4.0 | 0.00 | 0.00 | 0.00 | 66 | 1015.1 |